When you browse on this site, cookies collect data to enhance your experience and personalize the content and advertising you see.
Visit our Privacy Policy to learn more. By continuing to use the site, you agree to this use of cookies and data.

Hourly Weather Jalapa

Today, 11 July, Saturday

Time Temperature Precipitation Wind Pressure Humidity
00:00 +18°C° 0 mm 1 mps 643 mmHg 99%
01:00 +18°C° 0.3 mm 1 mps 643 mmHg 99%
02:00 +18°C° 0.3 mm 1 mps 642 mmHg 98%
03:00 +16°C° 0.3 mm 1 mps 641 mmHg 98%
04:00 +16°C° 0 mm 1 mps 642 mmHg 98%
05:00 +16°C° 0 mm 1 mps 642 mmHg 98%
06:00 +16°C° 0 mm 1 mps 642 mmHg 98%
07:00 +19°C° 0 mm 1 mps 642 mmHg 93%
08:00 +20°C° 0 mm 1 mps 643 mmHg 88%
09:00 +22°C° 0 mm 1 mps 644 mmHg 83%
10:00 +23°C° 0 mm 1 mps 644 mmHg 75%
11:00 +24°C° 0 mm 1 mps 644 mmHg 68%
12:00 +26°C° 0 mm 1 mps 645 mmHg 60%
13:00 +26°C° 0.1 mm 2 mps 644 mmHg 61%
14:00 +26°C° 0.1 mm 2 mps 643 mmHg 62%
15:00 +26°C° 0.1 mm 2 mps 643 mmHg 63%
16:00 +24°C° 0.2 mm 1 mps 643 mmHg 70%
17:00 +23°C° 0.2 mm 1 mps 643 mmHg 78%
18:00 +22°C° 0.2 mm 1 mps 642 mmHg 86%
19:00 +20°C° 0.1 mm 1 mps 642 mmHg 87%
20:00 +19°C° 0.1 mm 1 mps 643 mmHg 89%
21:00 +18°C° 0.1 mm 1 mps 643 mmHg 91%
22:00 +18°C° 0.1 mm 1 mps 643 mmHg 92%
23:00 +16°C° 0.1 mm 1 mps 643 mmHg 94%

Tomorrow, 12 July, Sunday

Time Temperature Precipitation Wind Pressure Humidity
00:00 +16°C° 0.1 mm 1 mps 643 mmHg 95%
01:00 +16°C° 0 mm 1 mps 642 mmHg 96%
02:00 +15°C° 0 mm 1 mps 642 mmHg 96%
03:00 +15°C° 0 mm 1 mps 641 mmHg 96%
04:00 +15°C° 0 mm 1 mps 641 mmHg 96%
05:00 +15°C° 0 mm 1 mps 641 mmHg 95%
06:00 +15°C° 0 mm 1 mps 641 mmHg 95%
07:00 +18°C° 0 mm 1 mps 642 mmHg 87%
08:00 +20°C° 0 mm 1 mps 643 mmHg 80%
09:00 +22°C° 0 mm 1 mps 643 mmHg 72%
10:00 +23°C° 0 mm 1 mps 644 mmHg 67%
11:00 +24°C° 0 mm 2 mps 644 mmHg 63%
12:00 +26°C° 0 mm 2 mps 644 mmHg 59%
13:00 +26°C° 0 mm 2 mps 643 mmHg 59%
14:00 +26°C° 0 mm 2 mps 643 mmHg 59%
15:00 +26°C° 0 mm 2 mps 642 mmHg 58%
16:00 +24°C° 0.2 mm 1 mps 642 mmHg 68%
17:00 +23°C° 0.2 mm 1 mps 642 mmHg 77%
18:00 +21°C° 0.2 mm 1 mps 642 mmHg 87%
19:00 +20°C° 0 mm 1 mps 642 mmHg 89%
20:00 +19°C° 0 mm 1 mps 642 mmHg 91%
21:00 +18°C° 0 mm 1 mps 642 mmHg 93%
22:00 +16°C° 0 mm 1 mps 642 mmHg 94%
23:00 +16°C° 0 mm 1 mps 642 mmHg 94%

Day after tomorrow, 13 July, Monday

Time Temperature Precipitation Wind Pressure Humidity
00:00 +16°C° 0 mm 1 mps 642 mmHg 94%
01:00 +15°C° 0 mm 1 mps 641 mmHg 94%
02:00 +15°C° 0 mm 1 mps 641 mmHg 94%
03:00 +15°C° 0 mm 1 mps 641 mmHg 94%
04:00 +15°C° 0 mm 1 mps 641 mmHg 94%
05:00 +14°C° 0 mm 1 mps 641 mmHg 93%
06:00 +14°C° 0 mm 1 mps 641 mmHg 92%
07:00 +18°C° 0 mm 1 mps 642 mmHg 84%
08:00 +20°C° 0 mm 1 mps 643 mmHg 76%
09:00 +22°C° 0 mm 1 mps 644 mmHg 69%
10:00 +23°C° 0 mm 1 mps 644 mmHg 66%
11:00 +24°C° 0 mm 1 mps 644 mmHg 62%
12:00 +26°C° 0 mm 1 mps 644 mmHg 59%
13:00 +25°C° 0.5 mm 1 mps 644 mmHg 66%
14:00 +24°C° 0.5 mm 1 mps 643 mmHg 72%
15:00 +24°C° 0.5 mm 1 mps 642 mmHg 78%
16:00 +23°C° 1.1 mm 1 mps 642 mmHg 83%
17:00 +22°C° 1.1 mm 1 mps 642 mmHg 88%
18:00 +20°C° 1.1 mm 1 mps 642 mmHg 93%
19:00 +20°C° 0.2 mm 1 mps 642 mmHg 93%
20:00 +19°C° 0.2 mm 1 mps 642 mmHg 94%
21:00 +19°C° 0.2 mm 1 mps 643 mmHg 94%
22:00 +18°C° 0 mm 1 mps 642 mmHg 94%
23:00 +18°C° 0 mm 1 mps 642 mmHg 95%

14 July, Tuesday

Time Temperature Precipitation Wind Pressure Humidity
00:00 +18°C° 0 mm 1 mps 642 mmHg 95%
01:00 +16°C° 0 mm 1 mps 642 mmHg 96%
02:00 +16°C° 0 mm 1 mps 641 mmHg 96%
03:00 +16°C° 0 mm 1 mps 641 mmHg 96%
04:00 +16°C° 0 mm 1 mps 641 mmHg 96%
05:00 +15°C° 0 mm 1 mps 641 mmHg 96%
06:00 +15°C° 0 mm 1 mps 641 mmHg 96%
07:00 +18°C° 0 mm 1 mps 642 mmHg 90%
08:00 +20°C° 0 mm 1 mps 642 mmHg 83%
09:00 +22°C° 0 mm 1 mps 643 mmHg 77%
10:00 +24°C° 0 mm 1 mps 643 mmHg 73%
11:00 +25°C° 0 mm 2 mps 643 mmHg 69%
12:00 +26°C° 0 mm 2 mps 644 mmHg 65%
13:00 +26°C° 0.1 mm 2 mps 643 mmHg 65%
14:00 +26°C° 0.1 mm 2 mps 643 mmHg 65%
15:00 +26°C° 0.1 mm 2 mps 642 mmHg 65%
16:00 +24°C° 1.1 mm 2 mps 642 mmHg 74%
17:00 +23°C° 1.1 mm 1 mps 642 mmHg 83%
18:00 +21°C° 1.1 mm 1 mps 642 mmHg 92%
19:00 +21°C° 1.3 mm 1 mps 642 mmHg 93%
20:00 +20°C° 1.3 mm 1 mps 642 mmHg 94%
21:00 +19°C° 1.3 mm 1 mps 642 mmHg 95%
22:00 +18°C° 0.1 mm 1 mps 642 mmHg 96%
23:00 +18°C° 0.1 mm 1 mps 642 mmHg 96%

15 July, Wednesday

Time Temperature Precipitation Wind Pressure Humidity
00:00 +18°C° 0.1 mm 1 mps 642 mmHg 97%
01:00 +16°C° 0 mm 1 mps 641 mmHg 97%
02:00 +16°C° 0 mm 1 mps 641 mmHg 97%
03:00 +16°C° 0 mm 1 mps 641 mmHg 97%
04:00 +16°C° 0 mm 1 mps 641 mmHg 97%
05:00 +16°C° 0 mm 1 mps 641 mmHg 97%
06:00 +16°C° 0 mm 1 mps 641 mmHg 97%
07:00 +18°C° 0 mm 1 mps 641 mmHg 91%
08:00 +20°C° 0 mm 1 mps 642 mmHg 85%
09:00 +22°C° 0 mm 1 mps 643 mmHg 80%
10:00 +24°C° 0 mm 2 mps 643 mmHg 73%
11:00 +25°C° 0 mm 2 mps 643 mmHg 67%
12:00 +26°C° 0 mm 2 mps 643 mmHg 61%
13:00 +26°C° 0.2 mm 2 mps 643 mmHg 63%
14:00 +26°C° 0.2 mm 2 mps 643 mmHg 65%
15:00 +26°C° 0.2 mm 2 mps 642 mmHg 68%
16:00 +24°C° 1.1 mm 2 mps 642 mmHg 76%
17:00 +22°C° 1.1 mm 1 mps 642 mmHg 85%
18:00 +21°C° 1.1 mm 1 mps 641 mmHg 93%
19:00 +20°C° 1.4 mm 1 mps 642 mmHg 94%
20:00 +19°C° 1.4 mm 1 mps 642 mmHg 95%
21:00 +18°C° 1.4 mm 1 mps 642 mmHg 95%
22:00 +18°C° 0.6 mm 1 mps 642 mmHg 95%
23:00 +18°C° 0.6 mm 1 mps 642 mmHg 95%

16 July, Thursday

Time Temperature Precipitation Wind Pressure Humidity
00:00 +18°C° 0.6 mm 1 mps 642 mmHg 94%
01:00 +16°C° 0 mm 1 mps 641 mmHg 94%
02:00 +16°C° 0 mm 1 mps 641 mmHg 94%
03:00 +16°C° 0 mm 1 mps 641 mmHg 94%
04:00 +15°C° 0 mm 1 mps 641 mmHg 93%
05:00 +15°C° 0 mm 1 mps 641 mmHg 93%
06:00 +15°C° 0 mm 1 mps 641 mmHg 92%
07:00 +18°C° 0 mm 1 mps 642 mmHg 86%
08:00 +20°C° 0 mm 1 mps 643 mmHg 79%
09:00 +22°C° 0 mm 1 mps 644 mmHg 73%
10:00 +24°C° 0 mm 1 mps 644 mmHg 66%
11:00 +25°C° 0 mm 2 mps 644 mmHg 59%
12:00 +26°C° 0 mm 2 mps 644 mmHg 52%
13:00 +26°C° 0 mm 2 mps 644 mmHg 53%
14:00 +26°C° 0 mm 2 mps 644 mmHg 54%
15:00 +26°C° 0 mm 2 mps 643 mmHg 54%
16:00 +24°C° 0 mm 1 mps 643 mmHg 63%
17:00 +23°C° 0 mm 1 mps 643 mmHg 71%
18:00 +22°C° 0 mm 1 mps 642 mmHg 80%
19:00 +20°C° 0.1 mm 1 mps 642 mmHg 82%
20:00 +19°C° 0.1 mm 1 mps 642 mmHg 84%
21:00 +18°C° 0.1 mm 1 mps 643 mmHg 86%
22:00 +18°C° 0 mm 1 mps 642 mmHg 88%
23:00 +16°C° 0 mm 1 mps 642 mmHg 91%
Show more